Simultaneous Nadir Overpasses (SNOs) Predictions

Prediction of SNOs between GOES-15 and TERRA Satellite Orbit:

Table of predicted SNOs for the next 14.0 days since TLE Epoch: 2/25/2017
Index Date Time (GOES-15) GOES-15 Lat,Lon TERRA Lat,Lon Distance(km) Time Diff (sec)
1 02/26/2017 07:18:31 -0.03,-135.23 0.67,-131.85 383.78 80
2 02/26/2017 19:39:47 0.03,-135.21 0.42,-137.01 204.20 80
3 02/28/2017 19:24:57 0.04,-135.16 -0.22,-134.06 126.22 80
4 03/01/2017 07:46:21 -0.03,-135.15 -0.93,-139.24 465.74 80
5 03/02/2017 19:12:47 0.04,-135.11 -0.83,-131.10 455.68 80
6 03/03/2017 07:34:11 -0.03,-135.09 -0.32,-136.29 136.51 80
7 03/05/2017 07:24:42 -0.03,-135.03 0.33,-133.34 191.72 80
8 03/05/2017 19:45:58 0.03,-135.01 0.78,-138.50 396.73 80
9 03/07/2017 19:33:49 0.02,-134.94 0.17,-135.55 69.62 80
10 03/09/2017 19:19:01 0.02,-134.86 -0.49,-132.61 257.12 80
11 03/10/2017 07:40:25 -0.02,-134.84 -0.67,-137.79 336.02 80




NCC Satellite Simultaneous Nadir Overpasses (SNOs) Prediction Service
